Stations météo

réclame
Mon MeteoGroup
Don Benito, Espagne (8333): Température de l'air & dewpoint: 10.12.2017 00:00:00 - 16.12.2017 00:00:00 (CET)Don Benito, Espagne (8333): Vitesse du vent & gusts: 10.12.2017 00:00:00 - 16.12.2017 00:00:00 (CET)Don Benito, Espagne (8333): Direction du vent: 10.12.2017 00:00:00 - 16.12.2017 00:00:00 (CET)Don Benito, Espagne (8333): reduced air pressure: 10.12.2017 00:00:00 - 16.12.2017 00:00:00 (CET)Don Benito, Espagne (8333): visibility: 10.12.2017 00:00:00 - 16.12.2017 00:00:00 (CET)Don Benito, Espagne (8333): Ensoleillement: 10.12.2017 00:00:00 - 16.12.2017 00:00:00 (CET)Don Benito, Espagne (8333): Quantités de précipitations: 10.12.2017 00:00:00 - 16.12.2017 00:00:00 (CET)
Date & Time tt [°C] td [°C] ff [km/h] ff [knt] fx [km/h] fx [knt] dd ppp [hPa] vv [km] sd [min] rr [mm]
16.12.2017 00:00:00 - - - - - - - - - - -
15.12.2017 23:00:00 7,1 2,9 4 2 16 9 SSW 1016,4 20 0 0,0
15.12.2017 22:00:00 8,2 2,5 6 3 21 11 NW 1015,5 20 0 0,0
15.12.2017 21:00:00 9,3 4,1 6 3 14 8 WNW 1015,2 20 0 0,0
15.12.2017 20:00:00 10,8 5,3 4 2 32 18 N 1014,6 20 0 0,0
15.12.2017 19:00:00 13,0 8,3 13 7 35 19 NW 1013,4 20 0 -
15.12.2017 18:00:00 13,9 12,7 11 6 24 13 WSW 1012,2 19 0 0,0
15.12.2017 17:00:00 14,5 12,8 11 6 33 18 WSW 1012,1 20 0 0,0
15.12.2017 16:00:00 15,1 13,0 13 7 36 19 WSW 1012,0 20 0 0,0
15.12.2017 15:00:00 15,1 13,0 9 5 39 21 W 1012,3 20 0 0,0
15.12.2017 14:00:00 15,5 12,4 18 10 46 25 WSW 1012,7 20 0 0,0
15.12.2017 13:00:00 14,6 12,4 16 9 37 20 WSW 1014,0 20 0 -
15.12.2017 12:00:00 14,4 13,2 20 11 36 19 WSW 1014,8 20 4 0,0
15.12.2017 11:00:00 13,4 12,6 16 9 36 19 WSW 1015,6 20 0 0,2
15.12.2017 10:00:00 12,5 11,9 12 7 21 12 SW 1015,6 20 0 0,0
15.12.2017 09:00:00 11,8 11,2 9 5 22 12 WSW 1016,1 1,2 0 0,0
15.12.2017 08:00:00 11,6 10,6 11 6 21 11 WSW 1016,2 20 0 0,0
15.12.2017 07:00:00 11,6 10,6 8 4 20 11 WSW 1016,3 20 0 -
15.12.2017 06:00:00 11,5 10,5 11 6 23 12 WSW 1016,8 20 0 0,0
15.12.2017 05:00:00 11,6 10,5 11 6 28 15 W 1017,5 20 0 0,0
15.12.2017 04:00:00 11,8 10,5 11 6 29 15 W 1017,8 20 0 0,0
15.12.2017 03:00:00 12,3 11,0 13 7 31 17 WSW 1017,8 20 0 0,0
15.12.2017 02:00:00 12,6 11,4 13 7 40 22 WSW 1018,0 20 0 0,0
15.12.2017 01:00:00 12,5 11,7 13 7 31 17 WSW 1018,7 20 0 -
15.12.2017 00:00:00 12,7 11,4 14 8 31 17 SW 1018,9 2,2 0 0,0
14.12.2017 23:00:00 12,7 11,6 15 8 29 16 WSW 1019,4 20 0 0,0
14.12.2017 22:00:00 12,9 11,8 14 7 28 15 WSW 1020,0 20 0 0,0
14.12.2017 21:00:00 12,9 11,8 14 8 29 16 WSW 1020,5 20 0 0,0
14.12.2017 20:00:00 13,0 12,1 13 7 35 19 WSW 1020,6 20 0 0,0
14.12.2017 19:00:00 12,9 12,0 16 8 31 17 SW 1020,5 20 0 -
14.12.2017 18:00:00 13,3 11,9 13 7 29 16 SW 1020,7 20 0 0,0
14.12.2017 17:00:00 14,0 11,7 14 7 26 14 WSW 1020,9 20 0 0,0
14.12.2017 16:00:00 13,8 11,7 10 6 29 15 WSW 1021,2 20 0 0,0
14.12.2017 15:00:00 13,7 12,1 14 8 32 18 WSW 1021,5 20 0 0,0
14.12.2017 14:00:00 13,2 12,1 13 7 29 16 WSW 1022,6 20 0 0,0
14.12.2017 13:00:00 12,2 11,6 11 6 21 11 WSW 1024,1 20 0 -
14.12.2017 12:00:00 11,4 10,8 11 6 20 11 SW 1025,3 9 0 0,0
14.12.2017 11:00:00 9,8 9,2 2 1 7 4 SW 1025,9 1,4 0 0,2
14.12.2017 10:00:00 9,6 9,0 4 2 11 6 W 1026,0 1,7 0 0,2
14.12.2017 09:00:00 9,5 8,8 8 5 16 8 SW 1025,6 2,0 0 0,0
14.12.2017 08:00:00 9,0 8,1 6 4 12 6 SSW 1025,5 2,5 0 0,0
14.12.2017 07:00:00 8,8 7,7 7 4 16 9 WSW 1025,8 6 0 -
14.12.2017 06:00:00 8,6 7,0 5 3 15 8 SW 1026,1 12 0 0,0
14.12.2017 05:00:00 8,7 5,8 4 2 11 6 WSW 1026,8 4,8 0 0,0
14.12.2017 04:00:00 8,4 5,3 8 4 14 7 SSW 1026,9 20 0 0,0
14.12.2017 03:00:00 7,8 5,1 7 4 11 6 SW 1027,3 20 0 0,0
14.12.2017 02:00:00 6,9 4,1 4 2 9 5 WSW 1028,2 20 0 0,0
14.12.2017 01:00:00 7,3 3,8 3 2 9 5 SW 1028,3 20 0 -
14.12.2017 00:00:00 7,7 4,3 5 3 9 5 SSW 1028,5 20 0 0,0
13.12.2017 23:00:00 8,6 4,8 4 2 6 4 WSW 1028,5 20 0 0,0
13.12.2017 22:00:00 9,9 5,5 3 2 8 4 SSW 1028,6 20 0 0,0
13.12.2017 21:00:00 10,0 5,5 5 3 10 5 SSW 1028,4 20 0 0,0
13.12.2017 20:00:00 10,2 5,0 4 2 6 4 SW 1028,4 20 0 0,0
13.12.2017 19:00:00 10,7 4,8 4 2 8 4 SW 1027,9 20 0 -
13.12.2017 18:00:00 11,8 4,1 2 1 12 7 SW 1027,9 20 4 0,0
13.12.2017 17:00:00 12,3 1,9 8 4 13 7 NW 1028,0 20 60 0,0
13.12.2017 16:00:00 12,6 1,9 8 4 16 9 NW 1027,7 20 60 0,0
13.12.2017 15:00:00 12,5 1,3 5 3 10 5 W 1028,1 20 60 0,0
13.12.2017 14:00:00 10,8 2,3 4 2 9 5 NNW 1029,1 20 60 0,0
13.12.2017 13:00:00 10,2 2,9 3 1 13 7 SSW 1029,6 20 60 -
13.12.2017 12:00:00 7,7 2,5 6 3 10 5 SSE 1031,1 20 60 0,0
13.12.2017 11:00:00 5,5 2,5 5 3 13 7 ENE 1031,8 20 60 0,0
13.12.2017 10:00:00 2,4 1,1 4 2 10 5 NNE 1030,6 9 57 0,0
13.12.2017 09:00:00 1,1 -0,5 3 1 12 7 NE 1029,7 19 0 0,0
13.12.2017 08:00:00 1,3 0,2 6 4 11 6 SSE 1029,3 20 0 0,0
13.12.2017 07:00:00 0,7 -0,5 3 2 4 2 SSE 1029,4 18 0 -
13.12.2017 06:00:00 1,1 -0,3 1 1 5 3 SSW 1029,0 16 0 0,0
13.12.2017 05:00:00 1,8 0,2 2 1 5 3 SSW 1028,4 15 0 0,0
13.12.2017 04:00:00 2,5 1,1 3 2 5 3 N 1028,2 20 0 0,0
13.12.2017 03:00:00 2,7 1,1 3 2 5 3 N 1027,6 20 0 0,0
13.12.2017 02:00:00 2,6 0,9 0 0 2 1 N 1027,3 20 0 0,0
13.12.2017 01:00:00 3,2 0,9 0 0 5 3 N 1026,8 20 0 -
13.12.2017 00:00:00 4,0 1,1 2 1 9 5 NNE 1026,5 20 0 0,0
12.12.2017 23:00:00 5,3 1,1 6 3 10 6 S 1025,5 20 0 0,0
12.12.2017 22:00:00 5,3 1,5 7 4 11 6 S 1024,9 20 0 0,0
12.12.2017 21:00:00 5,8 1,5 4 2 11 6 SSW 1024,3 20 0 0,0
12.12.2017 20:00:00 6,6 2,3 4 2 7 4 SW 1023,6 20 0 0,0
12.12.2017 19:00:00 7,8 1,5 3 2 7 4 WSW 1022,7 20 0 -
12.12.2017 18:00:00 9,7 0,6 4 2 10 5 W 1021,9 20 6 0,0
12.12.2017 17:00:00 11,6 -0,3 3 2 14 8 W 1021,0 20 60 0,0
12.12.2017 16:00:00 11,2 -1,0 6 3 12 7 NNW 1020,7 20 60 0,0
12.12.2017 15:00:00 11,5 0,2 3 2 13 7 NW 1019,8 18 60 0,0
12.12.2017 14:00:00 10,6 0,4 4 2 17 9 WNW 1020,0 20 60 0,0
12.12.2017 13:00:00 10,1 0,6 6 3 17 9 W 1020,1 20 60 -
12.12.2017 12:00:00 8,5 0,6 6 3 16 9 WSW 1020,5 20 60 0,0
12.12.2017 11:00:00 6,6 0,9 7 4 14 7 WSW 1020,1 20 60 0,0
12.12.2017 10:00:00 5,1 0,9 3 1 10 6 SSW 1019,2 20 60 0,0
12.12.2017 09:00:00 2,0 -0,3 3 2 9 5 S 1018,8 20 1 0,0
12.12.2017 08:00:00 1,5 -0,7 5 3 8 4 SW 1018,2 20 0 0,0
12.12.2017 07:00:00 1,7 -0,7 2 1 10 6 NW 1016,6 20 0 -
12.12.2017 06:00:00 2,3 -0,7 5 3 13 7 WSW 1015,3 20 0 0,0
12.12.2017 05:00:00 2,8 -0,7 4 2 9 5 WNW 1014,6 20 0 0,0
12.12.2017 04:00:00 3,7 -0,5 5 3 14 8 W 1013,8 20 0 0,0
12.12.2017 03:00:00 4,3 -0,3 4 2 16 8 W 1012,3 20 0 0,0
12.12.2017 02:00:00 5,6 -0,5 6 3 27 14 NW 1011,3 20 0 0,0
12.12.2017 01:00:00 5,1 0,9 8 4 16 8 W 1010,8 20 0 -
12.12.2017 00:00:00 5,9 2,5 8 5 19 10 WSW 1009,7 20 0 0,0
11.12.2017 23:00:00 6,2 3,9 7 4 22 12 W 1008,7 20 0 0,0
11.12.2017 22:00:00 7,0 4,5 10 5 24 13 WSW 1007,6 20 0 0,0
11.12.2017 21:00:00 7,9 5,1 13 7 26 14 WSW 1006,2 20 0 0,0
11.12.2017 20:00:00 8,4 5,1 12 6 29 16 WSW 1004,9 20 0 0,0
11.12.2017 19:00:00 8,8 5,0 13 7 32 17 WSW 1003,5 20 0 -
11.12.2017 18:00:00 9,8 5,0 16 8 37 20 WSW 1002,2 20 4 0,0
11.12.2017 17:00:00 10,7 6,2 16 9 42 23 WSW 1001,1 20 6 0,4
11.12.2017 16:00:00 11,2 5,8 18 10 43 23 WSW 1000,9 20 16 0,0
11.12.2017 15:00:00 12,5 5,0 22 12 41 22 WSW 1000,5 20 45 0,0
11.12.2017 14:00:00 11,6 5,3 17 9 42 23 WSW 1001,2 20 46 0,0
11.12.2017 13:00:00 11,2 5,3 22 12 41 22 WSW 1001,7 20 56 -
11.12.2017 12:00:00 10,6 6,1 17 9 39 21 WSW 1002,4 20 58 0,0
11.12.2017 11:00:00 9,4 6,1 13 7 30 16 WSW 1002,2 20 28 0,0
11.12.2017 10:00:00 7,8 6,2 9 5 32 17 W 1001,7 20 2 0,0
11.12.2017 09:00:00 7,3 5,3 13 7 42 23 WSW 999,8 20 0 0,0
11.12.2017 08:00:00 7,6 6,1 19 11 37 20 WSW 998,4 20 0 0,2
11.12.2017 07:00:00 7,8 6,5 16 9 40 22 WSW 998,8 20 0 -
11.12.2017 06:00:00 7,9 6,5 18 10 44 24 WSW 998,5 11 0 3,2
11.12.2017 05:00:00 9,0 6,5 19 10 56 30 W 998,3 17 0 3,2
11.12.2017 04:00:00 10,8 9,6 10 5 71 39 W 997,4 7 0 5,2
11.12.2017 03:00:00 13,5 11,2 46 25 85 46 SSW 994,4 7 0 1,4
11.12.2017 02:00:00 13,6 11,0 41 22 74 40 SSW 996,7 20 0 1,2
11.12.2017 01:00:00 13,5 11,3 30 16 59 32 SW 999,7 10 0 -
11.12.2017 00:00:00 13,4 11,2 27 15 58 31 SW 1002,3 20 0 0,2
10.12.2017 23:00:00 13,6 10,4 32 17 61 33 SSW 1004,4 20 0 0,0
10.12.2017 22:00:00 14,2 9,2 22 12 57 31 SW 1006,4 20 0 0,0
10.12.2017 21:00:00 14,5 8,7 31 17 65 35 SW 1007,1 20 0 0,0
10.12.2017 20:00:00 14,7 9,0 20 11 48 26 SW 1009,2 20 0 0,0
10.12.2017 19:00:00 14,6 9,4 21 12 43 23 SW 1010,6 20 0 -
10.12.2017 18:00:00 14,9 9,3 17 9 40 22 SW 1011,7 20 0 0,0
10.12.2017 17:00:00 14,8 10,0 19 11 41 22 WSW 1012,8 20 0 0,2
10.12.2017 16:00:00 14,5 11,4 19 10 48 26 WSW 1014,2 13 0 0,0
10.12.2017 15:00:00 15,5 10,0 21 11 42 23 SW 1015,5 20 0 0,0
10.12.2017 14:00:00 15,4 10,2 19 11 46 25 WSW 1017,4 20 0 0,0
10.12.2017 13:00:00 15,0 10,2 21 12 41 22 WSW 1019,2 20 2 -
10.12.2017 12:00:00 14,2 10,8 15 8 32 17 WSW 1020,2 20 0 0,0
10.12.2017 11:00:00 11,9 10,8 11 6 24 13 SW 1021,0 20 0 0,0
10.12.2017 10:00:00 11,8 10,4 12 7 24 13 SW 1022,4 18 0 0,0
10.12.2017 09:00:00 11,4 10,2 10 6 23 13 SW 1022,3 20 0 0,0
10.12.2017 08:00:00 11,0 10,0 12 6 23 12 SW 1022,9 20 0 0,0
10.12.2017 07:00:00 11,4 10,6 5 3 11 6 SW 1023,0 16 0 -
10.12.2017 06:00:00 11,5 10,8 4 2 25 13 W 1023,5 14 0 0,0
10.12.2017 05:00:00 11,7 10,9 10 5 29 16 WSW 1024,2 12 0 0,0
10.12.2017 04:00:00 11,9 11,1 13 7 30 16 WSW 1024,7 11 0 0,0
10.12.2017 03:00:00 11,7 10,8 13 7 30 16 WSW 1025,3 13 0 0,0
10.12.2017 02:00:00 12,1 11,3 11 6 26 14 WSW 1025,5 10 0 0,0
10.12.2017 01:00:00 11,9 11,3 10 5 23 12 WSW 1026,1 7 0 -
10.12.2017 00:00:00 11,7 10,9 8 5 17 9 WSW 1026,5 7 0 0,0

tt = Température de l'air
td = dewpoint
ff = Vitesse du vent
fx = gusts
dd = Direction du vent
ppp = reduced air pressure
vv = visibility
sd = Ensoleillement
rr = Quantités de précipitations

stations d'obs. à proximité